sat.trackr.live / text

‹ back to catalog

STARLINK-33979

NORAD 63867 · 2025-094D

PAYLOAD ACTIVE UNKNOWN

§ Identity

Operator
Country
US
Launch date
2025-05-10
Launch site
AFWTR
Launch vehicle
Mass (kg)
RCS (m²)

Purposes: comms

External: N2YO · Heavens-Above · Gunter

§ Orbital elements

Epoch: 2026-05-25T03:22:55.443072Z

Period
96.11 min
Inclination
70.0050°
Eccentricity
0.0002858
Mean motion
14.98314887 rev/d
Perigee alt
570.1 km
Apogee alt
574.1 km
Semi-major
6,950.2 km
B*
-1.2254e-3
RAAN
41.7492°
Arg perigee
264.9948°
Mean anomaly
95.0885°
Rev number
5,865

§ Raw data

STARLINK-339791 63867U 25094D   26145.14091948 -.00014678  00000+0 -12254-2 0  99972 63867  70.0050  41.7492 0002858 264.9948  95.0885 14.98314887 58658

JSON: /api/v1/satellites/63867 · /tle

For live sub-satellite position, see the globe view (requires WebGL).

§ Visibility from observer

Set your observer location to see the next 7 days of passes ≥ 10°. The values pass through the URL so the page stays shareable.

No JS? Fill the form by hand. The geolocation button needs JavaScript.